Torna al catalogo

BREEZE-M R/B

AttivoMEO
NORAD 32479·ROCKET BODY·🇷🇺 Russia

Lanciato Jan 28, 2008 da Baikonur Cosmodrome

Loading…

Prossimi Passaggi (prossime 24 ore)

TLE

AggiornatoSource: Space-Track

Epoca: Sep 14, 2026, 01:55 UTC

1 32479U 08003B   26257.08025010 -.00000138  00000-0  00000-0 0  9997
2 32479  11.4401  26.2968 0197611 241.9363 132.6860  1.04003041 70538

Traccia BREEZE-M R/B in tempo reale con AllMySat

Download on the App Store